Weather History for Galliano, LA

Change the Weather History Date:

Saturday, October 6, 2012

  Actual Average (KAXO) Record (KAXO)
Temperature  
Mean Temperature 74 °F -  
Max Temperature 87 °F 76 °F 86 °F (2008)
Min Temperature 60 °F 73 °F 71 °F (1999)
Cooling Degree Days 8    
Growing Degree Days 24 (Base 50)    
Moisture  
Dew Point 66 °F    
Average Humidity 81    
Maximum Humidity 100    
Minimum Humidity 40    
Precipitation  
Precipitation 0.00 in - - ()
Sea Level Pressure  
Sea Level Pressure 29.99 in    
Wind  
Wind Speed 2 mph (NNE)    
Max Wind Speed 10 mph    
Max Gust Speed 18 mph    
Visibility 9 miles    
Events Fog    
Averages and records for this station are not official NWS values.
T = Trace of Precipitation, MM = Missing Value Source: NWS Daily Summary

Daily Weather History Graph

Daily Weather History Graph

Search for Another Location

Airport:

Trip Planner

Search our weather history database for the weather conditions in past years. The results will help you decide how hot, cold, wet, or windy it might be!

Date:

Astronomy

Oct. 06, 2012 Rise Set
Actual Time 6:57 AM CDT 6:40 PM CDT
Civil Twilight 6:33 AM CDT 7:03 PM CDT
Nautical Twilight 6:05 AM CDT 7:31 PM CDT
Astronomical Twilight 5:38 AM CDT 7:59 PM CDT
Moon 11:15 PM CDT (10/6) 12:31 PM CDT (10/6)
Length of Visible Light 12h 30m
Length of Day
11h 42m
Waning Gibbous, 65% of the Moon is Illuminated
Oct 6
Waning Gibbous
Oct 8
Last Quarter
Oct 15
New
Oct 21
First Quarter
Oct 29
Full

Hourly Weather History & Observations

Time (CDT) Temp. Heat Index Dew Point Humidity Pressure Visibility Wind Dir Wind Speed Gust Speed Precip Events Conditions
12:15 AM 64.4 °F - 64.4 °F 100% 30.02 in 10.0 mi Calm Calm - N/A   Clear
12:35 AM 64.4 °F - 64.4 °F 100% 30.02 in 10.0 mi Calm Calm - N/A   Clear
12:55 AM 64.4 °F - 64.4 °F 100% 30.02 in 10.0 mi Calm Calm - N/A   Clear
1:15 AM 62.6 °F - 62.6 °F 100% 30.02 in 10.0 mi Calm Calm - N/A   Clear
1:35 AM 62.6 °F - 62.6 °F 100% 30.02 in 10.0 mi Calm Calm - N/A   Clear
1:55 AM 62.6 °F - 62.6 °F 100% 30.02 in 10.0 mi Calm Calm - N/A   Clear
2:15 AM 64.4 °F - 64.4 °F 100% 30.02 in 10.0 mi Calm Calm - N/A   Clear
2:35 AM 62.6 °F - 62.6 °F 100% 30.02 in 7.0 mi Calm Calm - N/A   Clear
2:55 AM 62.6 °F - 62.6 °F 100% 30.01 in 10.0 mi Calm Calm - N/A   Clear
3:15 AM 62.6 °F - 62.6 °F 100% 30.00 in 10.0 mi Calm Calm - N/A   Clear
3:55 AM 62.6 °F - 62.6 °F 100% 29.99 in 4.0 mi Calm Calm - N/A   Clear
4:35 AM 60.8 °F - 60.8 °F 100% 30.00 in 1.8 mi Calm Calm - N/A   Scattered Clouds
4:55 AM 60.8 °F - 60.8 °F 100% 30.00 in 10.0 mi Calm Calm - N/A   Scattered Clouds
5:35 AM 60.8 °F - 60.8 °F 100% 30.01 in 0.5 mi NNW 3.5 mph - N/A Fog Fog
5:55 AM 60.8 °F - 60.8 °F 100% 30.01 in 10.0 mi Calm Calm - N/A   Scattered Clouds
6:15 AM 62.6 °F - 62.6 °F 100% 30.01 in 7.0 mi Calm Calm - N/A   Clear
6:35 AM 60.8 °F - 60.8 °F 100% 30.01 in 5.0 mi Calm Calm - N/A   Clear
6:55 AM 60.8 °F - 60.8 °F 100% 30.01 in 1.0 mi Calm Calm - N/A   Mist
7:15 AM 60.8 °F - 60.8 °F 100% 30.01 in 1.8 mi NNW 3.5 mph - N/A   Mist
7:35 AM 62.6 °F - 62.6 °F 100% 30.02 in 5.0 mi Calm Calm - N/A   Clear
7:55 AM 64.4 °F - 64.4 °F 100% 30.02 in 3.0 mi Calm Calm - N/A   Mist
8:15 AM 66.2 °F - 66.2 °F 100% 30.02 in 5.0 mi NW 3.5 mph - N/A   Clear
8:35 AM 68.0 °F - 68.0 °F 100% 30.02 in 10.0 mi NW 4.6 mph - N/A   Clear
8:55 AM 69.8 °F - 69.8 °F 100% 30.02 in 10.0 mi Calm Calm - N/A   Clear
9:15 AM 73.4 °F - 73.4 °F 100% 30.02 in 10.0 mi NNW 3.5 mph - N/A   Clear
9:35 AM 77.0 °F - 73.4 °F 89% 30.03 in 10.0 mi North 5.8 mph - N/A   Clear
9:55 AM 78.8 °F - 75.2 °F 89% 30.03 in 10.0 mi North 6.9 mph - N/A   Clear
10:15 AM 80.6 °F 86.2 °F 75.2 °F 84% 30.03 in 10.0 mi North 6.9 mph - N/A   Clear
10:35 AM 82.4 °F 85.4 °F 68.0 °F 62% 30.03 in 10.0 mi NNE 6.9 mph - N/A   Clear
10:55 AM 82.4 °F 84.6 °F 66.2 °F 58% 30.02 in 10.0 mi North 8.1 mph - N/A   Clear
11:15 AM 82.4 °F 84.6 °F 66.2 °F 58% 30.02 in 10.0 mi North 6.9 mph - N/A   Clear
11:35 AM 84.2 °F 85.6 °F 64.4 °F 51% 30.02 in 10.0 mi North 6.9 mph - N/A   Clear
11:55 AM 84.2 °F 85.6 °F 64.4 °F 51% 30.02 in 10.0 mi North 6.9 mph - N/A   Clear
12:15 PM 86.0 °F 86.6 °F 62.6 °F 45% 30.01 in 10.0 mi North 6.9 mph - N/A   Clear
12:35 PM 86.0 °F 87.3 °F 64.4 °F 48% 30.00 in 10.0 mi North 8.1 mph - N/A   Clear
12:55 PM 86.0 °F 87.3 °F 64.4 °F 48% 29.99 in 10.0 mi North 8.1 mph - N/A   Clear
1:15 PM 86.0 °F 87.3 °F 64.4 °F 48% 29.98 in 10.0 mi North 8.1 mph - N/A   Clear
1:35 PM 86.0 °F 87.3 °F 64.4 °F 48% 29.97 in 10.0 mi NE 5.8 mph - N/A   Clear
1:55 PM 87.8 °F 89.4 °F 64.4 °F 46% 29.96 in 10.0 mi North 6.9 mph - N/A   Clear
2:15 PM 87.8 °F 89.4 °F 64.4 °F 46% 29.95 in 10.0 mi NNW 5.8 mph - N/A   Clear
2:35 PM 87.8 °F 89.4 °F 64.4 °F 46% 29.94 in 10.0 mi NNE 3.5 mph - N/A   Clear
2:55 PM 87.8 °F 89.4 °F 64.4 °F 46% 29.94 in 10.0 mi East 4.6 mph - N/A   Clear
3:15 PM 87.8 °F 89.4 °F 64.4 °F 46% 29.94 in 10.0 mi ENE 6.9 mph - N/A   Clear
3:35 PM 87.8 °F 88.5 °F 62.6 °F 43% 29.94 in 10.0 mi NE 4.6 mph - N/A   Clear
3:55 PM 87.8 °F 87.6 °F 60.8 °F 40% 29.94 in 10.0 mi ENE 4.6 mph - N/A   Clear
4:15 PM 87.8 °F 88.5 °F 62.6 °F 43% 29.94 in 10.0 mi ENE 5.8 mph - N/A   Clear
4:35 PM 86.0 °F 86.6 °F 62.6 °F 45% 29.93 in 10.0 mi East 4.6 mph - N/A   Clear
4:55 PM 86.0 °F 86.6 °F 62.6 °F 45% 29.94 in 10.0 mi East 3.5 mph - N/A   Clear
5:15 PM 86.0 °F 86.6 °F 62.6 °F 45% 29.94 in 10.0 mi ENE 3.5 mph - N/A   Clear
5:35 PM 84.2 °F 85.6 °F 64.4 °F 51% 29.94 in 10.0 mi East 3.5 mph - N/A   Clear
6:15 PM 80.6 °F 83.9 °F 69.8 °F 70% 29.95 in 10.0 mi East 4.6 mph - N/A   Clear
6:35 PM 78.8 °F - 71.6 °F 78% 29.95 in 10.0 mi ESE 3.5 mph - N/A   Clear
6:55 PM 77.0 °F - 71.6 °F 83% 29.96 in 10.0 mi Calm Calm - N/A   Clear
7:15 PM 77.0 °F - 71.6 °F 83% 29.96 in 10.0 mi Calm Calm - N/A   Clear
7:35 PM 75.2 °F - 71.6 °F 89% 29.97 in 10.0 mi Calm Calm - N/A   Clear
7:55 PM 73.4 °F - 71.6 °F 94% 29.97 in 10.0 mi Calm Calm - N/A   Clear
8:15 PM 71.6 °F - 71.6 °F 100% 29.97 in 10.0 mi Calm Calm - N/A   Clear
8:35 PM 71.6 °F - 71.6 °F 100% 29.97 in 10.0 mi Calm Calm - N/A   Clear
8:55 PM 69.8 °F - 69.8 °F 100% 29.98 in 10.0 mi Calm Calm - N/A   Clear
9:15 PM 68.0 °F - 68.0 °F 100% 29.98 in 10.0 mi Calm Calm - N/A   Clear
9:35 PM 68.0 °F - 68.0 °F 100% 29.98 in 10.0 mi Calm Calm - N/A   Clear
9:55 PM 68.0 °F - 68.0 °F 100% 29.99 in 10.0 mi Calm Calm - N/A   Scattered Clouds
10:15 PM 69.8 °F - 69.8 °F 100% 29.99 in 10.0 mi Calm Calm - N/A   Scattered Clouds
10:35 PM 71.6 °F - 71.6 °F 100% 29.99 in 10.0 mi Calm Calm - N/A   Scattered Clouds
10:55 PM 71.6 °F - 71.6 °F 100% 29.99 in 10.0 mi North 8.1 mph - N/A   Scattered Clouds
11:15 PM 75.2 °F - 73.4 °F 94% 29.99 in 10.0 mi North 10.4 mph - N/A   Scattered Clouds
11:35 PM 75.2 °F - 73.4 °F 94% 29.99 in 10.0 mi North 8.1 mph 18.4 mph N/A   Scattered Clouds
11:55 PM 73.4 °F - 71.6 °F 94% 29.99 in 10.0 mi North 10.4 mph - N/A   Clear